Regional Weather Roundup
Issued by NWS

Home | Current Version | Previous Version | Graphics & Text | Print | Product List | Glossary Off
Versions: 1 2 3 4 5 6 7 8 9 10 11 12 13 14 15 16 17 18 19 20 21 22 23 24 25 26 27 28 29 30 31 32 33 34 35 36 37 38 39 40 41 42 43 44 45 46 47 48 49 50

000
ASUS43 KTOP 040808
RWRKS

WEATHER ROUNDUP FOR KANSAS
NATIONAL WEATHER SERVICE GOODLAND KS
300 AM CDT SAT JUL 04 2015

NOTE:  "FAIR" INDICATES FEW OR NO CLOUDS BELOW 12,000 FEET WITH NO
SIGNIFICANT WEATHER AND/OR OBSTRUCTIONS TO VISIBILITY.

KSZ001>006-013>018-027>032-041>047-040900-
NORTHWEST KANSAS

CITY           SKY/WX    TMP DP  RH WIND       PRES   REMARKS
GOODLAND       PTCLDY    67  59  75 S12       30.04F
HAYS           CLEAR     64  55  72 CALM      30.01S
HILL CITY      CLEAR     64  60  87 E3        30.02S
RUSSELL        CLEAR     64  62  93 SE6       30.00S
$$

KSZ061>065-074>080-084>089-040900-
SOUTHWEST KANSAS

CITY           SKY/WX    TMP DP  RH WIND       PRES   REMARKS
DODGE CITY     PTCLDY    64  58  80 SE6       30.03S
ELKHART          N/A     67  60  78 S3          N/A
GARDEN CITY    MOCLDY    65  62  90 SE10      30.02F
GREAT BEND     CLEAR     66  61  82 S6        30.01S
LIBERAL        PTCLDY    70  63  78 SE6       30.04F
PRATT          MOCLDY    68  61  77 SE5       30.01F
$$

KSZ066>073-081>083-090>101-040900-
SOUTHEAST KANSAS

CITY           SKY/WX    TMP DP  RH WIND       PRES   REMARKS
CHANUTE        MOCLDY    68  64  87 NE3       29.97F
COFFEYVILLE    CLEAR     69  66  90 N6        29.95F
HUTCHINSON     CLEAR     65  61  87 SE5       29.99F
MEDICINE LODGE   N/A     71  63  75 E6        29.98S
NEWTON         CLEAR     64  57  77 E5        30.01S
PARSONS        PTCLDY    70  67  90 CALM      29.97F
WICHITA INTL   CLEAR     69  62  78 E6        29.98S
WICHITA JABRA  CLEAR     64  62  93 E3        29.98F
WICHITA MCCONL CLEAR     69  63  79 E7        29.98F
WINFIELD       CLEAR     70  64  81 NE3       29.98F
$$

KSZ007>012-019>026-033>040-048>060-102>105-040900-
NORTHEAST KANSAS

CITY           SKY/WX    TMP DP  RH WIND       PRES   REMARKS
CONCORDIA      CLEAR     62  57  83 CALM      30.00F
EMPORIA        CLEAR     63  61  93 CALM      29.99S
LAWRENCE       PTCLDY    60  58  92 CALM      29.99S FOG
MANHATTAN      CLEAR     60  59  96 CALM      29.99F
MARYSVILLE     CLEAR     61  59  94 CALM      30.00S
OLATHE IND     PTCLDY    65  61  87 E6        29.99F
OLATHE EXE     PTCLDY    65  58  78 E6        29.98F
SALINA         CLEAR     65  58  78 SE5       29.99F
TOPEKA BILLARD CLEAR     63  61  93 CALM      29.98F FOG
TOPEKA FORBES  PTCLDY    64  59  83 CALM      29.98F
$$



USA.gov is the U.S. government's official web portal to all federal, state and local government web resources and services.